Flag for U.S.A. Weather past 2 weeks in Springfield, Missouri, U.S.A.

Now
72 °F

Sunny.


Feels Like: 73 °F
Forecast: 70 / 87 °F
Wind: 10 mph from South

Location: Springfield Regional Airport

Current Time: Sep 2, 2015 at 8:52:01 AM

Latest Report: Sep 2, 2015 at 7:52 AM


Visibility: 10 mi

Pressure: 30.07 "Hg

Humidity: 78%

Dew point: 65 °F

Location of SpringfieldLocation

Historic Weather in Springfield — Graph

°F

Springfield temperature yesterday

Maximum temperature yesterday: 87 °F (at 1:52 PM)
Minimum temperature yesterday: 69 °F (at 6:52 AM)
Average temperature yesterday: 78 °F

Past Weeks' High & Low Weather Summary

 TemperatureHumidityPressure
High88 °F (Aug 31, 1:52 PM)94% (Aug 19, 7:52 AM)30.18 "Hg (Aug 19, 7:52 AM)
Low53 °F (Aug 20, 6:52 AM)36% (Aug 24, 2:52 PM)29.67 "Hg (Aug 18, 6:52 PM)
Average71 °F73%30.01 "Hg
* Reported Aug 18 7:52 AM — Sep 2 7:52 AM, Springfield, Weather by CustomWeather, © 2015

Note: Actual official high and low records may vary slightly from our data, if they occured in-between our weather recording intervals... More about our weather records

Advertising

Springfield weather history for previous 24 hours

 ConditionsComfort  
Time TempWeatherWind HumidityBarometerVisibility
7:52 AM
Wed, Sep 2
72 °FSunny.10 mph78%30.07 "Hg10 mi
6:52 AM70 °FClear.9 mph81%30.06 "Hg10 mi
5:52 AM70 °FClear.12 mph81%30.04 "Hg10 mi
4:52 AM70 °FClear.10 mph84%30.03 "Hg10 mi
3:52 AM71 °FClear.10 mph81%30.03 "Hg10 mi
2:52 AM72 °FClear.9 mph81%30.02 "Hg10 mi
1:52 AM72 °FClear.10 mph84%30.03 "Hg10 mi
12:52 AM73 °FClear.8 mph84%30.04 "Hg10 mi
11:52 PM
Tue, Sep 1
74 °FClear.9 mph85%30.04 "Hg10 mi
10:52 PM75 °FClear.7 mph82%30.05 "Hg10 mi
9:52 PM75 °FClear.6 mph79%30.04 "Hg10 mi
8:52 PM78 °FClear.7 mph71%30.03 "Hg10 mi
7:52 PM78 °FSunny.5 mph69%30.01 "Hg10 mi
6:52 PM84 °FSunny.10 mph53%30.01 "Hg10 mi
5:52 PM87 °FSunny.10 mph48%30.00 "Hg10 mi
3:52 PM87 °FSunny.9 mph48%30.01 "Hg10 mi
2:52 PM87 °FScattered clouds.12 mph50%30.03 "Hg10 mi
1:52 PM87 °FPassing clouds.12 mph50%30.04 "Hg10 mi
12:52 PM86 °FSunny.10 mph51%30.05 "Hg10 mi
11:52 AM85 °FSunny.10 mph55%30.06 "Hg10 mi
10:52 AM83 °FSunny.8 mph61%30.06 "Hg10 mi
9:52 AM80 °FSunny.9 mph69%30.06 "Hg10 mi
8:52 AM76 °FSunny.7 mph74%30.06 "Hg10 mi
Weather by CustomWeather, © 2015

See weather overviewHow to use our weather pages